Location: Unspecified
(49.2170°N, 0.0000°E)
Time: 12:53:08
(UTC+00:00)

Transit 4A - Pass Details

Date: 21 June 2019
Orbit: 862 x 982 km, 66.8° (Epoch: 21 July)

Event Time Altitude Azimuth Distance (km) Brightness Sun altitude
Rises 17:49:46 0° 320° (NW) 3,692 11.9 19.4°
Reaches altitude 10° 17:52:32 10° 312° (NW) 2,734 11.6 19.0°
Maximum altitude 17:58:17 37° 248° (WSW) 1,467 10.0 18.1°
Drops below altitude 10° 18:03:55 10° 184° (S) 2,663 10.2 17.2°
Sets 18:06:35 0° 176° (S) 3,585 10.8 16.8°
